Wind_Speed
22 22 21 21 22 21 20 20 20 21 21 21 22 22 22 23 22 22 22 22 22 23 23 23 23 23 23 22 22 22 22 22 22 22 22 22 22 22 22 22 22 22 23
23 24 24 24 23 21 20 21 21 21 22 23 23 21 21 22 22 22 23 23 22 23 22 22 23 23 23 22 22 21 21 22 22 23 23 23 23 23 23 23 23 23 24
23 24 24 23 22 22 21 20 19 19 19 20 20 20 20 20 20 21 21 22 22 22 22 22 22 23 22 22 22 21 22 21 23 24 25 24 23 24 24 24 24 24 24
23 24 24 23 23 22 21 21 19 19 19 19 19 18 18 18 18 19 19 21 21 21 21 21 21 22 22 21 21 22 22 21 22 23 25 24 24 25 24 25 26 26 25
23 23 23 22 21 21 21 20 19 17 17 17 17 16 16 16 17 18 19 19 20 20 20 21 21 21 21 22 21 22 22 22 21 22 23 24 25 25 24 24 25 25 26
21 21 22 22 21 19 17 16 15 16 16 16 16 16 16 16 17 18 18 19 20 20 20 20 19 19 20 21 21 21 22 22 21 22 22 23 24 25 25 25 24 24 25
20 21 21 20 20 19 16 15 15 15 15 15 15 15 15 16 17 18 19 20 20 19 19 19 18 18 19 20 20 19 20 21 21 22 22 22 23 24 25 26 25 25 26
20 20 20 21 20 18 16 15 15 15 14 14 14 14 15 16 17 18 19 19 19 19 18 18 18 17 18 18 18 18 18 20 20 21 22 22 23 24 25 26 26 26 26
20 20 20 20 19 18 17 15 15 15 14 14 14 14 16 17 17 18 18 18 19 19 18 18 19 19 18 18 18 17 18 19 20 20 21 22 23 23 24 25 26 27 27
19 18 18 18 18 18 17 16 16 16 14 14 14 15 16 17 18 18 18 18 18 17 17 17 17 17 17 17 17 17 18 19 19 20 21 22 23 24 25 26 27 27 27
19 19 18 18 17 17 18 17 17 16 15 15 15 16 17 17 17 17 17 16 17 16 16 16 15 16 16 17 18 18 18 19 20 21 21 22 23 24 24 25 25 25 25
19 18 18 17 17 17 18 17 17 17 16 16 16 16 17 17 17 16 16 16 16 15 15 15 15 15 16 16 17 18 18 19 20 20 21 22 23 24 24 24 25 25 25
18 18 18 17 17 17 17 17 17 16 16 15 15 16 16 16 16 16 16 15 15 15 14 15 15 16 16 16 17 18 19 19 20 20 22 23 23 23 23 24 24 24 24
18 18 17 17 17 17 17 17 17 16 15 14 14 15 15 15 15 15 15 15 15 14 14 14 14 15 16 16 17 19 19 20 20 21 22 23 23 23 24 24 25 24 24
18 18 17 17 16 17 17 16 16 16 15 14 15 15 15 15 15 15 16 15 15 14 14 14 14 15 16 17 18 18 19 20 20 20 22 22 23 23 24 24 24 24 24
18 17 17 17 17 17 16 16 15 15 15 15 15 15 15 15 15 15 16 16 15 14 14 15 15 15 16 17 17 18 19 19 20 21 22 22 23 24 25 25 25 25 25
17 17 17 17 16 16 16 16 16 15 15 15 16 16 16 16 16 15 16 16 15 15 14 15 15 15 16 17 18 18 19 20 20 21 22 22 23 24 25 24 25 25 25
17 17 17 17 15 15 16 16 16 15 16 16 16 17 17 17 16 16 17 16 15 15 15 16 16 16 16 18 18 19 19 19 19 20 20 21 22 23 23 24 24 24 24
17 18 17 17 16 16 17 17 16 16 17 17 17 17 17 17 17 16 16 16 16 16 16 16 15 15 16 17 17 17 16 16 17 18 20 21 21 22 23 23 23 24 24
17 18 18 18 17 17 17 16 17 17 18 18 18 18 17 17 17 17 16 17 17 16 17 16 16 16 15 15 16 16 16 17 18 19 20 20 21 21 22 23 23 23 23
17 18 18 18 18 18 17 17 18 18 19 19 18 18 17 17 17 17 17 18 18 18 17 17 16 16 16 16 16 16 17 18 19 20 20 21 21 22 22 23 22 22 22
18 18 18 18 18 18 18 18 18 19 19 19 18 18 17 18 18 18 18 19 18 19 18 17 17 17 17 17 17 18 18 19 19 20 20 21 22 22 22 22 21 21 21
18 18 19 19 18 18 19 19 19 19 19 18 18 17 17 18 19 19 19 19 19 18 17 17 18 18 18 18 18 18 19 19 20 21 21 21 22 22 22 22 21 21 20
19 19 20 20 20 19 19 19 19 19 18 18 18 18 18 18 19 19 18 18 18 18 18 18 18 18 18 18 19 19 20 20 21 21 21 22 22 22 22 21 21 20 19
20 20 20 20 20 19 19 19 19 18 18 18 18 18 18 18 18 18 18 17 17 18 18 18 18 18 19 19 19 19 19 20 20 21 22 22 22 22 21 20 20 19 19
21 20 20 20 20 19 19 19 19 19 18 18 18 18 17 18 17 17 17 17 18 18 19 19 18 18 18 18 18 19 19 19 20 21 21 22 22 21 20 19 20 19 18
Wind_Direction
319 318 317 309 304 301 300 297 292 290 288 288 287 285 284 284 284 284 284 284 282 281 279 273 271 269 271 272 271 270 269 270 269 267 265 267 271 274 272 270 270 268 266
315 317 315 310 307 305 299 297 293 292 289 287 287 287 287 284 285 285 284 284 283 281 281 278 276 274 274 273 271 271 271 268 267 266 265 266 270 274 274 272 271 269 268
314 314 316 312 310 308 302 299 297 296 294 292 291 289 288 287 287 286 285 285 284 283 280 280 278 276 274 273 271 271 272 269 268 267 266 266 269 272 273 273 272 271 271
315 314 316 314 314 312 306 300 298 296 295 295 294 292 290 289 289 290 288 287 286 285 282 281 278 276 274 272 273 274 272 270 270 269 269 268 270 272 272 271 272 271 271
317 316 318 320 317 313 308 304 299 294 299 300 298 298 295 292 291 291 290 290 289 288 286 284 282 278 275 273 274 273 271 271 271 270 270 270 270 271 271 271 271 270 270
317 319 321 323 322 319 312 310 309 306 307 303 302 299 296 293 291 290 289 290 290 289 288 284 282 279 276 273 274 273 271 271 272 272 272 271 271 271 272 272 272 270 269
322 328 329 331 329 327 323 315 317 317 311 307 305 303 301 296 294 292 291 292 290 289 287 282 281 279 278 277 276 274 271 273 274 276 275 274 274 272 271 271 271 270 269
329 330 329 329 331 334 332 325 325 322 318 310 307 304 304 300 299 297 295 294 290 290 287 281 279 278 279 279 279 278 275 276 277 276 276 276 275 274 272 271 271 270 269
330 329 328 327 330 332 332 330 328 324 319 314 310 308 305 303 305 304 300 296 291 289 288 283 279 279 277 276 279 280 278 279 279 278 278 277 278 277 276 275 273 271 270
334 334 333 331 330 332 335 335 332 327 322 319 316 315 314 312 310 308 304 300 296 291 290 286 283 278 275 275 277 281 280 279 279 279 279 281 281 279 278 277 277 275 273
337 337 337 336 333 332 336 335 332 329 325 322 320 318 318 317 315 313 308 302 298 296 292 289 285 282 281 282 281 281 280 280 280 280 280 282 284 284 282 281 280 277 274
337 337 336 336 335 333 333 332 332 331 329 326 323 321 320 319 318 318 314 311 306 300 294 288 285 284 284 284 284 282 284 284 283 282 282 284 285 286 286 285 285 281 277
338 337 337 336 334 333 331 331 329 329 329 327 324 324 323 321 322 322 319 318 314 307 300 294 291 288 287 285 285 284 285 287 285 285 286 288 288 287 288 288 287 283 279
338 337 337 336 334 333 331 330 330 330 328 328 327 327 327 326 325 325 323 319 316 309 304 300 297 295 293 291 289 290 289 288 288 287 288 289 288 288 288 289 288 285 282
335 334 334 334 334 333 331 332 333 333 332 331 331 331 330 329 328 326 325 322 318 312 310 306 302 300 297 295 295 295 294 292 290 289 289 289 288 287 288 290 289 286 284
334 331 329 331 332 333 333 332 332 332 331 332 333 333 332 332 329 326 325 324 321 316 311 309 307 304 302 299 297 295 295 294 292 290 290 291 291 289 289 289 288 287 286
332 331 330 329 330 331 334 331 329 330 331 331 332 333 334 334 332 330 329 326 321 318 318 315 312 309 307 303 301 296 294 294 294 293 293 293 292 292 290 289 289 289 287
328 329 330 330 329 330 333 335 334 334 334 334 334 334 334 332 331 329 329 328 324 321 320 318 314 311 308 306 304 300 298 297 299 299 298 295 294 296 294 293 294 292 290
324 326 327 327 326 325 328 331 334 335 335 335 333 334 334 334 332 329 330 330 326 324 323 320 316 312 311 310 308 306 303 303 305 304 303 302 300 299 298 297 296 293 292
322 324 325 326 325 324 326 328 330 330 330 330 330 332 331 331 331 331 331 330 327 325 324 322 320 319 318 315 313 312 311 309 309 311 311 309 306 302 300 299 297 295 294
318 320 321 321 323 323 324 324 325 325 326 327 326 327 328 329 328 328 329 327 325 324 323 322 322 322 322 321 320 318 315 313 312 314 316 315 311 306 304 303 301 297 295
315 316 317 318 318 319 319 319 319 320 322 323 323 324 325 326 326 326 327 326 325 325 323 321 321 323 323 323 323 320 318 317 316 316 316 315 316 312 309 307 303 300 298
314 315 315 315 314 314 316 317 317 318 319 320 320 320 321 322 324 325 326 326 326 326 325 322 321 321 321 321 320 321 320 319 318 317 316 317 317 315 312 309 307 304 301
310 313 312 313 312 312 314 314 314 316 318 318 318 318 318 320 323 326 327 326 326 326 324 323 323 322 322 321 320 320 321 320 319 319 318 318 317 315 313 310 309 306 304
308 310 311 311 310 311 311 311 312 313 314 317 319 320 321 321 323 325 327 327 327 325 325 324 322 322 322 321 320 320 320 321 320 320 320 320 320 318 314 311 310 309 306
308 308 308 310 309 309 309 309 310 312 313 314 316 317 319 320 323 325 326 326 326 325 323 322 321 322 325 324 324 323 321 321 322 323 323 324 323 322 318 315 313 312 310
Height
5830 5827 5824 5821 5819 5816 5814 5811 5809 5808 5807 5806 5805 5805 5805 5804 5803 5801 5800 5798 5797 5796 5794 5793 5793 5792 5793 5792 5792 5792 5791 5791 5791 5790 5790 5790 5789 5789 5789 5788 5788 5787 5787
5826 5823 5819 5816 5813 5811 5808 5806 5804 5802 5801 5800 5799 5799 5798 5798 5796 5795 5794 5793 5791 5790 5788 5787 5787 5787 5786 5786 5785 5785 5785 5785 5784 5784 5784 5784 5784 5783 5782 5782 5781 5781 5780
5822 5819 5815 5811 5808 5805 5803 5800 5799 5797 5795 5794 5793 5793 5792 5791 5790 5789 5787 5786 5785 5784 5783 5782 5781 5780 5780 5780 5779 5779 5779 5778 5778 5778 5778 5778 5778 5777 5777 5775 5775 5774 5773
5818 5814 5810 5806 5803 5800 5797 5795 5793 5792 5790 5789 5788 5787 5787 5785 5785 5783 5782 5780 5779 5778 5777 5775 5775 5774 5773 5773 5772 5772 5771 5771 5771 5771 5771 5771 5771 5771 5770 5769 5768 5766 5766
5814 5810 5805 5801 5798 5795 5792 5790 5787 5785 5785 5784 5783 5782 5782 5781 5780 5778 5776 5775 5773 5772 5770 5769 5768 5767 5767 5766 5766 5765 5765 5765 5764 5764 5764 5763 5763 5763 5762 5762 5761 5759 5758
5810 5806 5802 5799 5795 5790 5788 5785 5783 5781 5780 5779 5778 5778 5777 5776 5775 5773 5771 5770 5768 5766 5764 5763 5762 5761 5761 5760 5760 5759 5758 5758 5757 5757 5757 5756 5756 5755 5754 5754 5753 5752 5751
5807 5803 5798 5796 5792 5788 5784 5782 5779 5778 5777 5775 5774 5773 5773 5771 5770 5768 5766 5764 5762 5760 5759 5757 5756 5756 5755 5754 5753 5752 5752 5751 5751 5750 5750 5749 5748 5747 5747 5746 5745 5744 5743
5804 5800 5796 5793 5789 5785 5782 5779 5777 5775 5773 5772 5771 5770 5768 5767 5764 5762 5760 5758 5756 5755 5753 5752 5751 5751 5749 5748 5747 5746 5746 5745 5744 5744 5743 5742 5741 5739 5738 5737 5736 5736 5735
5802 5798 5794 5791 5787 5783 5780 5777 5775 5772 5770 5769 5767 5766 5764 5762 5759 5757 5755 5753 5751 5749 5748 5746 5745 5745 5744 5743 5742 5741 5740 5739 5738 5737 5736 5735 5733 5732 5730 5729 5727 5727 5726
5799 5796 5792 5788 5785 5781 5778 5774 5772 5770 5768 5766 5763 5761 5759 5757 5754 5752 5750 5747 5745 5744 5742 5740 5739 5739 5738 5737 5736 5735 5734 5733 5732 5730 5729 5728 5726 5724 5722 5720 5719 5717 5717
5797 5793 5790 5786 5783 5779 5776 5773 5771 5768 5765 5762 5760 5758 5755 5753 5750 5748 5745 5743 5740 5738 5737 5736 5735 5734 5733 5732 5731 5730 5728 5727 5725 5724 5722 5721 5719 5717 5714 5712 5710 5709 5707
5794 5791 5788 5784 5781 5778 5775 5772 5769 5766 5763 5760 5757 5755 5752 5749 5746 5744 5741 5738 5736 5734 5732 5731 5730 5729 5728 5727 5725 5724 5722 5721 5719 5718 5716 5714 5712 5710 5707 5704 5702 5700 5699
5793 5789 5786 5782 5779 5776 5773 5770 5767 5764 5761 5758 5755 5752 5749 5746 5743 5740 5737 5734 5732 5729 5727 5726 5725 5724 5723 5721 5720 5718 5717 5715 5713 5712 5710 5708 5705 5703 5700 5697 5695 5693 5691
5790 5787 5784 5781 5777 5774 5771 5768 5765 5761 5758 5755 5753 5749 5746 5742 5740 5737 5734 5731 5728 5726 5724 5722 5720 5719 5717 5716 5715 5713 5711 5709 5707 5705 5703 5701 5699 5696 5693 5691 5688 5686 5684
5789 5785 5782 5779 5775 5772 5768 5765 5762 5759 5756 5753 5750 5747 5743 5740 5737 5734 5731 5727 5725 5723 5720 5718 5716 5715 5713 5711 5709 5707 5705 5703 5701 5699 5697 5694 5692 5689 5686 5683 5681 5678 5676
5786 5783 5780 5776 5773 5770 5766 5763 5760 5757 5754 5751 5748 5744 5741 5738 5734 5731 5728 5725 5722 5720 5717 5715 5712 5710 5708 5706 5704 5701 5699 5697 5695 5693 5690 5688 5685 5682 5679 5677 5674 5671 5668
5784 5781 5777 5774 5771 5768 5765 5761 5758 5755 5752 5749 5745 5742 5739 5735 5732 5729 5725 5722 5719 5717 5714 5711 5709 5706 5704 5701 5698 5696 5694 5692 5689 5687 5684 5681 5678 5676 5673 5670 5667 5663 5660
5782 5779 5775 5771 5768 5766 5763 5759 5755 5753 5749 5746 5743 5740 5736 5733 5729 5726 5723 5720 5717 5714 5711 5708 5705 5702 5699 5696 5694 5691 5688 5686 5683 5680 5678 5675 5672 5669 5666 5663 5660 5656 5654
5779 5776 5772 5769 5766 5763 5760 5756 5753 5750 5747 5744 5740 5737 5733 5730 5727 5724 5720 5717 5714 5711 5707 5704 5701 5698 5695 5692 5689 5687 5684 5681 5678 5675 5672 5669 5666 5663 5660 5657 5653 5650 5647
5776 5772 5769 5766 5763 5760 5757 5754 5751 5747 5744 5741 5738 5734 5730 5727 5724 5721 5718 5714 5711 5707 5704 5701 5697 5694 5691 5688 5685 5682 5679 5677 5673 5670 5666 5663 5660 5656 5653 5650 5647 5644 5641
5772 5769 5766 5763 5760 5757 5754 5751 5748 5745 5741 5738 5734 5731 5728 5724 5721 5718 5715 5711 5708 5704 5701 5698 5694 5691 5687 5684 5681 5678 5675 5672 5669 5665 5661 5658 5654 5650 5647 5643 5640 5637 5634
5769 5765 5763 5760 5757 5754 5751 5748 5744 5741 5738 5734 5731 5727 5724 5722 5718 5715 5712 5708 5704 5701 5697 5694 5690 5687 5684 5680 5677 5674 5670 5667 5664 5660 5657 5653 5649 5645 5641 5637 5634 5630 5627
5764 5761 5759 5756 5753 5750 5747 5743 5740 5737 5734 5730 5727 5724 5721 5719 5715 5712 5708 5704 5701 5697 5694 5690 5687 5683 5680 5676 5673 5670 5666 5662 5659 5655 5651 5647 5643 5639 5635 5631 5628 5624 5621
5759 5757 5754 5751 5748 5745 5742 5739 5736 5732 5730 5727 5723 5721 5718 5715 5711 5708 5704 5701 5697 5694 5690 5686 5683 5679 5675 5672 5669 5665 5662 5658 5654 5650 5646 5642 5638 5634 5629 5626 5622 5618 5615
5754 5752 5749 5746 5744 5741 5738 5734 5731 5728 5725 5723 5720 5717 5714 5711 5707 5704 5701 5697 5694 5690 5686 5683 5679 5675 5672 5668 5664 5661 5657 5653 5649 5645 5641 5637 5633 5628 5624 5620 5616 5613 5610
5749 5747 5744 5741 5739 5736 5733 5730 5727 5724 5721 5718 5716 5713 5710 5707 5703 5700 5697 5693 5690 5686 5682 5678 5675 5671 5667 5663 5660 5656 5652 5648 5644 5640 5636 5632 5628 5623 5619 5615 5611 5608 5605